Showing default

S-NET C, 43189

Orbit data source: Space-Track

S-NET C, 43189 is a payload satellite owned by TUB (DE) in SSO that was launched on Thu, 01 Feb 2018 UTC via a SOYUZ-2-1A launch vehicle from the Vostochny Cosmodrome (VOSTO). Payloads include a variety of satellites, spacecraft, and rockets equipped with specific instruments for various scientific and technological missions. These include communications satellites like Starlink; space stations such as the ISS; scientific satellites like the Hubble; Earth observation satellites from companies like Planet Labs, Umbra, and HawkEye 360; GPS; miniature CubeSats for education and research; and military/defense satellites.

Loading next visibility...
S-NET C details
Identifier
43189, 2018-014K
Orbit
SSO
Last TLE update8 hours ago
Origin
Flag of DETUB (DE / GER)
ManufacturerTUB
MissionOperational Commercial Com/Tech
Bus & MotorTUBIX10, Unknown motor
Mass8 kg wet, 8 kg dry
Launch date (UTC)
2018-02-01 (7 years ago)
Launch vehicle
SOYUZ-2-1A
Launch site
Vostochny Cosmodrome (VOSTO)
Object type
Payload
Rocket body
Debris
Shape & HBRBox, 0.24 m
Radar Cross Section0.086 m², Medium (>0.1 m² and < 1m²)

Expand to show TLE details & history

TLE from 8 hours ago
0 S-NET C
1 43189U 18014K   24361.28373410  .00011183  00000-0  71467-3 0  9995
2 43189  97.5790 260.1503 0013628  62.8597 297.4019 15.08724138375970
Epoch: 2024-12-26T06:48Z
Definitive object data (Epoch: 2024-12-26T06:48:34.626Z)
Latitude-0.00006°
Longitude62.74069°
Altitude538.838 km
Speed7.595 km/s
True Right ascension17h 20m 36s
True Declination0° 00' 00"
Sunlit
Object was in daylight at TLE epoch
Visualization TLE readout
Latitude-82.26337°
Longitude166.13482°
Altitude576.876 km
Speed7.566 km/s
Apparent Right ascension01h 29m 22s
Apparent Declination-62° 09' 35"
Sunlit
Object is in daylight
Visualization observer readout
Local Sidereal Time13:43:32
Azimuth175.648° S
Elevation-67.653°
Doppler factor1
Orbital elements
Apogee altitude546.51 km
Perigee altitude527.662 km
Semi-major axis6,915.223 km
Eccentricity0.0013628
Inclination97.579°
RAAN260.1503°
Arg. of periapsis62.8597°
True anomaly297.26315°
Mean anomaly297.4019°
Eccentric anomaly297.33253°
Mean motion3.77428 °/min
BSTAR0.00071467
Orbital period95.38 mins
Loading maneuver chart data...
Loading historical data...
Loading historical data...
Loading historical data...
Loading historical data...
Loading historical data...
Loading historical data...
Loading historical data...

S-NET C Visibility forecast

Observer location: undefined°, undefined

Span
Click to sort rows by Start time (UTC) header in descending order
Start Az.
Max El. time (UTC)
Max El. Az.
Max El.
End time (UTC)
End Az.
5 mins2024-12-26 18:05:42.413Z215.244° SW2024-12-26 18:07:42.413Z270.962° WNW28.378°2024-12-26 18:10:42.413Z326.44° NNW
5 mins2024-12-27 05:40:42.413Z49.291° ENE2024-12-27 05:42:42.413Z89.947° E23.321°2024-12-27 05:45:42.413Z149.159° SSE
4 mins2024-12-27 07:15:42.413Z323.778° NNW2024-12-27 07:17:42.413Z282.332° WNW19.351°2024-12-27 07:19:42.413Z247.581° W
|